Location: Unspecified
(0.0000°N, 0.0000°E)
Time: 11:40:18
(UTC+01:00)

Altair - All Passes

Search period start: 16 January 2017 00:00
Search period end: 26 January 2017 00:00
Orbit: 1501 x 1683 km, 47.2° (Epoch: 15 January)

Date Brightness Start Highest point End Pass type
(mag) Time Alt. Az. Time Alt. Az. Time Alt. Az.
16 Jan - 05:41:54 10° N 05:48:37 22° NE 05:55:11 10° E visible
16 Jan - 07:44:00 10° NW 07:53:17 75° SW 08:02:26 10° SSE daylight
16 Jan - 09:54:48 10° WSW 09:58:14 12° SW 10:01:40 10° SSW daylight
16 Jan - 18:28:33 10° SSW 18:38:04 50° SE 18:47:45 10° ENE daylight
16 Jan - 20:33:46 10° WSW 20:42:47 37° NW 20:51:54 10° NNE visible
17 Jan - 05:17:15 10° N 05:23:23 19° NE 05:29:23 10° E visible
17 Jan - 07:18:49 10° NW 07:28:10 83° SW 07:37:21 10° SE daylight
17 Jan - 09:28:24 10° WSW 09:32:59 15° SW 09:37:35 10° SSW daylight
17 Jan - 18:03:36 10° SSW 18:12:53 44° SE 18:22:20 10° ENE daylight
17 Jan - 20:08:19 10° WSW 20:17:34 42° NW 20:26:56 10° NNE visible
18 Jan - 04:52:43 10° N 04:58:09 16° NE 05:03:28 10° E visible
18 Jan - 06:53:39 10° NW 07:03:02 88° NE 07:12:14 10° SE daylight
18 Jan - 09:02:18 10° W 09:07:46 17° SW 09:13:13 10° S daylight
18 Jan - 17:38:40 10° SSW 17:47:41 40° SE 17:56:52 10° ENE daylight
18 Jan - 19:42:55 10° WSW 19:52:21 47° NW 20:01:58 10° NNE visible
19 Jan - 04:28:20 10° NNE 04:32:53 14° NE 04:37:22 10° ENE visible
19 Jan - 06:28:31 10° NW 06:37:55 80° NE 06:47:06 10° SE visible
19 Jan - 08:36:24 10° W 08:42:32 20° SW 08:48:42 10° S daylight
19 Jan - 17:13:47 10° SSW 17:22:29 35° SE 17:31:21 10° ENE daylight
19 Jan - 19:17:34 10° SW 19:27:09 53° NW 19:36:57 10° NNE visible
20 Jan - 04:04:15 10° NNE 04:07:36 12° NE 04:10:56 10° ENE visible
20 Jan - 06:03:24 10° NNW 06:12:47 72° NE 06:21:55 10° SE visible
20 Jan - 08:10:36 10° W 08:17:21 22° SW 08:24:05 10° S daylight
20 Jan - 16:48:56 10° S 16:57:17 31° SE 17:05:46 10° ENE daylight
20 Jan - 18:52:15 10° SW 19:01:58 59° NW 19:11:54 10° NNE daylight
21 Jan - 03:41:12 10° NE 03:42:19 10° NE 03:43:25 10° NE visible
21 Jan - 05:38:19 10° NNW 05:47:39 64° NE 05:56:43 10° SE visible
21 Jan - 07:44:54 10° W 07:52:10 26° SW 07:59:23 10° S daylight
21 Jan - 16:24:09 10° S 16:32:05 28° SE 16:40:08 10° ENE daylight
21 Jan - 18:26:59 10° SW 18:36:47 65° NW 18:46:49 10° NNE daylight
21 Jan - 20:39:09 10° WNW 20:42:15 12° NW 20:45:21 10° NNW visible
22 Jan - 05:13:15 10° NNW 05:22:31 57° NE 05:31:29 10° SE visible
22 Jan - 07:19:18 10° WNW 07:27:00 29° SW 07:34:37 10° S daylight
22 Jan - 15:59:25 10° S 16:06:51 24° SE 16:14:25 10° E daylight
22 Jan - 18:01:45 10° SW 18:11:36 73° NW 18:21:42 10° NNE daylight
22 Jan - 20:12:26 10° WNW 20:16:55 14° NW 20:21:27 10° NNW visible
23 Jan - 04:48:14 10° NNW 04:57:21 51° NE 05:06:13 10° ESE visible
23 Jan - 06:53:45 10° WNW 07:01:50 33° SW 07:09:48 10° SSE daylight
23 Jan - 15:34:45 10° S 15:41:37 21° SE 15:48:37 10° E daylight
23 Jan - 17:36:33 10° SW 17:46:25 80° NW 17:56:33 10° NE daylight
23 Jan - 19:46:08 10° W 19:51:37 16° NW 19:57:10 10° N visible
24 Jan - 04:23:14 10° NNW 04:32:12 45° NE 04:40:53 10° ESE visible
24 Jan - 06:28:16 10° WNW 06:36:40 37° SW 06:44:58 10° SSE visible
24 Jan - 15:10:11 10° S 15:16:23 19° SE 15:22:40 10° E daylight
24 Jan - 17:11:23 10° SW 17:21:15 88° NW 17:31:23 10° NE daylight
24 Jan - 19:20:05 10° W 19:26:19 18° NW 19:32:40 10° N daylight
25 Jan - 03:58:15 10° NNW 04:07:02 40° NE 04:15:32 10° ESE visible
25 Jan - 06:02:49 10° WNW 06:11:32 42° SW 06:20:04 10° SSE visible
25 Jan - 14:45:44 10° SSE 14:51:08 16° SE 14:56:35 10° E daylight
25 Jan - 16:46:16 10° SW 16:56:04 83° SE 17:06:11 10° NE daylight
25 Jan - 18:54:11 10° W 19:01:03 21° NW 19:08:03 10° N daylight
